Blackwell, OK

9:46 PM CST on December 12, 2017 (GMT -0600)
Blackwell

Weather History for KBKN - December, 2012

Change the Weather History Date:

Monday, December 17, 2012

  Actual Average (KPNC) Record (KPNC)
Temperature  
Mean Temperature 42 °F -  
Max Temperature 55 °F 53 °F 72 °F (1962)
Min Temperature 28 °F 28 °F 6 °F (1964)
Degree Days  
Heating Degree Days 24    
Moisture  
Dew Point 31 °F    
Average Humidity 74    
Maximum Humidity 100    
Minimum Humidity 33    
Precipitation  
Precipitation 0.00 in - - ()
Sea Level Pressure  
Sea Level Pressure 29.78 in    
Wind  
Wind Speed 7 mph (WSW)    
Max Wind Speed 14 mph    
Max Gust Speed 16 mph    
Visibility 8 miles    
Events      
Averages and records for this station are not official NWS values.
T = Trace of Precipitation, MM = Missing Value Source: NWS Daily Summary

Daily Weather History Graph

Daily Weather History Graph

Search for Another Location

Airport or City:

Trip Planner

Search our weather history database for the weather conditions in past years. The results will help you decide how hot, cold, wet, or windy it might be!

Date:

Astronomy

Dec. 17, 2012 Rise Set
Actual Time 7:36 AM CST 5:15 PM CST
Civil Twilight 7:07 AM CST 5:44 PM CST
Nautical Twilight 6:34 AM CST 6:16 PM CST
Astronomical Twilight 6:03 AM CST 6:48 PM CST
Moon 10:51 AM CST (12/17) 10:31 PM CST (12/17)
Length of Visible Light 10h 36m
Length of Day
9h 39m
Waxing Crescent, 25% of the Moon is Illuminated
Dec 17
Waxing Crescent
Dec 19
First Quarter
Dec 28
Full
Jan 4
Last Quarter
Jan 11
New

Hourly Weather History & Observations

Time (CST) Temp. Windchill Dew Point Humidity Pressure Visibility Wind Dir Wind Speed Gust Speed Precip Events Conditions
12:15 AM 37.4 °F 32.8 °F 32.0 °F 81% 29.79 in 9.0 mi NW 5.8 mph - N/A   Overcast
12:35 AM 37.4 °F 31.4 °F 32.0 °F 81% 29.79 in 9.0 mi NNW 8.1 mph - N/A   Overcast
12:55 AM 37.4 °F 30.8 °F 32.0 °F 81% 29.79 in 9.0 mi NNW 9.2 mph - N/A   Overcast
1:15 AM 35.6 °F 30.7 °F 32.0 °F 87% 29.79 in 8.0 mi NNW 5.8 mph - N/A   Overcast
1:35 AM 35.6 °F 30.7 °F 32.0 °F 87% 29.79 in 7.0 mi North 5.8 mph - N/A   Overcast
1:55 AM 35.6 °F 31.7 °F 32.0 °F 87% 29.79 in 7.0 mi North 4.6 mph - N/A   Overcast
2:15 AM 35.6 °F 31.7 °F 32.0 °F 87% 29.80 in 7.0 mi NNW 4.6 mph - N/A   Overcast
2:35 AM 35.6 °F 32.8 °F 32.0 °F 87% 29.79 in 7.0 mi North 3.5 mph - N/A   Overcast
2:55 AM 33.8 °F 30.8 °F 32.0 °F 93% 29.79 in 6.0 mi NW 3.5 mph - N/A   Overcast
3:15 AM 33.8 °F 27.0 °F 32.0 °F 93% 29.81 in 6.0 mi West 8.1 mph - N/A   Overcast
3:35 AM 35.6 °F 30.7 °F 32.0 °F 87% 29.81 in 6.0 mi WNW 5.8 mph - N/A   Overcast
3:55 AM 35.6 °F 30.7 °F 32.0 °F 87% 29.80 in 7.0 mi NW 5.8 mph - N/A   Overcast
4:15 AM 35.6 °F 31.7 °F 32.0 °F 87% 29.80 in 7.0 mi NW 4.6 mph - N/A   Overcast
4:35 AM 35.6 °F 29.9 °F 32.0 °F 87% 29.80 in 7.0 mi NW 6.9 mph - N/A   Overcast
4:55 AM 35.6 °F 30.7 °F 32.0 °F 87% 29.80 in 7.0 mi NNW 5.8 mph - N/A   Overcast
5:15 AM 33.8 °F 28.6 °F 32.0 °F 93% 29.80 in 7.0 mi WNW 5.8 mph - N/A   Overcast
5:35 AM 32.0 °F 27.5 °F 30.2 °F 93% 29.80 in 5.0 mi WNW 4.6 mph - N/A   Scattered Clouds
5:55 AM 32.0 °F 27.5 °F 28.4 °F 87% 29.80 in 5.0 mi WNW 4.6 mph - N/A   Clear
6:15 AM 30.2 °F - 28.4 °F 93% 29.81 in 4.0 mi Calm Calm - N/A   Clear
6:35 AM 32.0 °F 28.7 °F 30.2 °F 93% 29.81 in 4.0 mi WSW 3.5 mph - N/A   Clear
6:55 AM 30.2 °F 25.4 °F 28.4 °F 93% 29.82 in 1.8 mi WSW 4.6 mph - N/A   Clear
7:15 AM 28.4 °F 22.2 °F 26.6 °F 93% 29.82 in 1.5 mi WSW 5.8 mph - N/A   Clear
7:35 AM 28.4 °F 22.2 °F 28.4 °F 100% 29.82 in 1.2 mi West 5.8 mph - N/A   Clear
7:55 AM 28.4 °F 21.2 °F 28.4 °F 100% 29.82 in 1.5 mi WSW 6.9 mph - N/A   Clear
8:15 AM 28.4 °F 23.3 °F 26.6 °F 93% 29.83 in 1.8 mi WSW 4.6 mph - N/A   Clear
8:35 AM 28.4 °F 22.2 °F 28.4 °F 100% 29.83 in 3.0 mi SW 5.8 mph - N/A   Clear
8:55 AM 32.0 °F 25.6 °F 32.0 °F 100% 29.83 in 4.0 mi SW 6.9 mph - N/A   Clear
9:15 AM 35.6 °F 29.9 °F 32.0 °F 87% 29.83 in 6.0 mi WSW 6.9 mph - N/A   Clear
9:35 AM 37.4 °F 30.3 °F 32.0 °F 81% 29.83 in 9.0 mi WSW 10.4 mph - N/A   Clear
9:55 AM 39.2 °F 32.5 °F 33.8 °F 81% 29.84 in 10.0 mi WSW 10.4 mph - N/A   Clear
10:15 AM 41.0 °F 35.2 °F 33.8 °F 76% 29.85 in 10.0 mi WSW 9.2 mph - N/A   Clear
10:35 AM 42.8 °F 36.6 °F 33.8 °F 70% 29.85 in 10.0 mi WSW 11.5 mph - N/A   Clear
10:55 AM 44.6 °F 38.8 °F 35.6 °F 71% 29.84 in 10.0 mi WSW 11.5 mph - N/A   Clear
11:15 AM 46.4 °F 41.1 °F 35.6 °F 66% 29.84 in 10.0 mi West 11.5 mph - N/A   Clear
11:35 AM 48.2 °F - 35.6 °F 62% 29.84 in 10.0 mi West 13.8 mph - N/A   Clear
11:55 AM 48.2 °F - 35.6 °F 62% 29.83 in 10.0 mi West 10.4 mph - N/A   Clear
12:15 PM 48.2 °F - 33.8 °F 58% 29.82 in 10.0 mi West 11.5 mph 16.1 mph N/A   Clear
12:35 PM 50.0 °F - 32.0 °F 50% 29.80 in 10.0 mi West 10.4 mph - N/A   Clear
12:55 PM 50.0 °F - 32.0 °F 50% 29.79 in 10.0 mi West 6.9 mph - N/A   Clear
1:15 PM 51.8 °F - 32.0 °F 47% 29.77 in 10.0 mi West 8.1 mph - N/A   Clear
1:35 PM 51.8 °F - 30.2 °F 44% 29.77 in 10.0 mi WSW 6.9 mph - N/A   Clear
1:55 PM 53.6 °F - 30.2 °F 41% 29.76 in 10.0 mi WSW 6.9 mph - N/A   Clear
2:15 PM 53.6 °F - 28.4 °F 38% 29.74 in 10.0 mi WSW 8.1 mph - N/A   Clear
2:35 PM 53.6 °F - 26.6 °F 35% 29.74 in 10.0 mi SW 9.2 mph - N/A   Clear
2:55 PM 55.4 °F - 26.6 °F 33% 29.74 in 10.0 mi WSW 10.4 mph - N/A   Clear
3:15 PM 55.4 °F - 26.6 °F 33% 29.73 in 10.0 mi SW 8.1 mph - N/A   Clear
3:35 PM 55.4 °F - 28.4 °F 36% 29.73 in 10.0 mi SSW 6.9 mph - N/A   Clear
3:55 PM 55.4 °F - 30.2 °F 38% 29.73 in 10.0 mi SW 5.8 mph - N/A   Clear
6:35 PM 42.8 °F 37.0 °F 28.4 °F 57% 29.73 in 10.0 mi South 10.4 mph - N/A   Clear
6:55 PM 42.8 °F 37.0 °F 28.4 °F 57% 29.73 in 10.0 mi South 10.4 mph - N/A   Clear
7:15 PM 44.6 °F 39.2 °F 30.2 °F 57% 29.73 in 10.0 mi SSW 10.4 mph - N/A   Clear
7:35 PM 42.8 °F 37.5 °F 30.2 °F 61% 29.73 in 10.0 mi SSW 9.2 mph - N/A   Clear
7:55 PM 41.0 °F 36.4 °F 32.0 °F 70% 29.74 in 10.0 mi South 6.9 mph - N/A   Clear
8:15 PM 41.0 °F 35.2 °F 32.0 °F 70% 29.74 in 10.0 mi South 9.2 mph - N/A   Clear
8:35 PM 39.2 °F 33.0 °F 30.2 °F 70% 29.74 in 10.0 mi South 9.2 mph - N/A   Clear
8:55 PM 39.2 °F 32.5 °F 32.0 °F 75% 29.74 in 10.0 mi South 10.4 mph - N/A   Clear
9:15 PM 39.2 °F 35.0 °F 32.0 °F 75% 29.73 in 10.0 mi South 5.8 mph - N/A   Clear
9:35 PM 35.6 °F 30.7 °F 28.4 °F 75% 29.73 in 10.0 mi South 5.8 mph - N/A   Clear
9:55 PM 35.6 °F 29.2 °F 28.4 °F 75% 29.72 in 10.0 mi South 8.1 mph - N/A   Clear
10:15 PM 37.4 °F 31.4 °F 30.2 °F 75% 29.71 in 10.0 mi SSE 8.1 mph - N/A   Clear
10:35 PM 37.4 °F 31.4 °F 32.0 °F 81% 29.71 in 10.0 mi SSE 8.1 mph - N/A   Clear
10:55 PM 37.4 °F 30.8 °F 32.0 °F 81% 29.71 in 10.0 mi South 9.2 mph - N/A   Clear
11:15 PM 37.4 °F 30.3 °F 32.0 °F 81% 29.71 in 10.0 mi South 10.4 mph - N/A   Clear
11:35 PM 35.6 °F 28.6 °F 30.2 °F 81% 29.70 in 10.0 mi South 9.2 mph - N/A   Clear
11:55 PM 35.6 °F 28.6 °F 32.0 °F 87% 29.70 in 10.0 mi South 9.2 mph - N/A   Clear